ONEWEB-0451, 51643

Orbit data source: Space-Track

ONEWEB-0451, 51643 is a payload satellite owned by One Web (NAA) (UK) in LEO that was launched on Thu, 10 Feb 2022 UTC via a SOYUZ-ST-B launch vehicle from the French Guiana (FRGUI). Payload-class satellites include a variety of spacecraft equipped with specific instruments for various scientific and technological missions. These include communications satellites like Starlink; space stations such as the ISS; scientific satellites like the Hubble; Earth observation satellites from companies like Planet Labs, Umbra, and HawkEye 360; GPS; miniature CubeSats for education and research; and military/defense satellites.

Loading next visibility...
Identifier
51643, 2022-012X
Orbit
LEO
Country
Flag of UKUK
Related business
Manufacturer
One Web
Mission
Operational Commercial Communications
Bus & Motor
ARROW, Unknown motor
Mass
148 kg wet, ~140 kg dry
Launch date (UTC)
2022-02-10 (4 years ago)
Launch vehicle
SOYUZ-ST-B
Launch site
French Guiana (FRGUI)
Object type
Payload
Rocket body
Debris
Shape & HBR
Trap Box + 2 Pan, 6.7 m
Radar Cross Section
3.464 m², Large (>1 m²)

Expand to show TLE details & history
Last TLE update: 2 days ago

TLE from 2 days ago
0 ONEWEB-0451
1 51643U 22012X   26170.94255265  .00000028  00000-0  38565-4 0  9991
2 51643  87.9145   5.2948 0001962  82.4920 277.6434 13.17649995214022
Epoch: 2026-06-19T22:37Z
TLE epoch observation values (Epoch: 2026-06-19T22:37:16.548Z)
Latitude
-0.00009°
Longitude
117.81156°
Altitude
1,196.411 km
Speed
7.256 km/s
True Right ascension
00h 21m 10s
True Declination
0° 00' 00"
Sunlit
Object was in daylight at epoch
Visualization orbit readout
Latitude
Unknown
Longitude
Unknown
Altitude
Unknown
Speed
Unknown
Apparent Right ascension
Unknown
Apparent Declination
Unknown
Sunlit
N/A
Visualization observer readout
Local Sidereal Time
21:28:44
Azimuth
Unknown
Elevation
Unknown
Doppler factor
Unknown
Orbital elements
Apogee altitude
1,192.303 km
Perigee altitude
1,189.333 km
Semi-major axis
7,568.955 km
Eccentricity
0.0002
Inclination
87.9145°
RAAN
5.2948°
Arg. of periapsis
82.492°
True anomaly
277.62112°
Mean anomaly
277.6434°
Eccentric anomaly
277.63226°
Mean motion
3.29602 °/min
Orbital period
109.22 mins
BSTAR
0.000038565
Loading maneuver chart data...
Computing Atmospheric mass density...
Loading historical data...
Loading historical data...
Loading historical data...
Loading historical data...
Loading historical data...
Loading historical data...
Loading historical data...

Documentation

Showing up to 5 results
|